Location: Colle Santa Colomba
(42.0333°N, 12.5667°E)
Time: 02:33:55
(UTC+00:00)

Cosmos 2333 Rocket - Pass Details

Date: 25 October 2021
Orbit: 837 x 865 km, 70.8° (Epoch: 05 December)

Event Time Altitude Azimuth Distance (km) Brightness Sun altitude
Rises 19:52:37 0° 247° (WSW) 3,393 5.8 -40.8°
Reaches altitude 10° 19:55:44 10° 264° (W) 2,466 5.1 -41.4°
Enters shadow 19:59:15 20° 303° (WNW) 1,880 4.5 -42.0°
